Tracking 31080 objects as of 20-Jul-2025
HD Live streaming from Space Station
objects crossing your sky now

FREGAT DEB

Track FREGAT DEB now!
10-day predictions


NORAD ID: 40078
Int'l Code: 2014-037K
Perigee: 622.6 km
Apogee: 809.7 km
Inclination: 98.0 °
Period: 99.0 minutes
Semi major axis: 7087 km
RCS: Unknown
Launch date: July 8, 2014
Source: Commonwealth of Independent States (former USSR) (CIS)
Launch site: TYURATAM MISSILE AND SPACE COMPLEX (TTMTR)

Note: This is SATELLITE DEBRIS
Your satellite tracking list
Your tracking list is empty




NASA's NSSDC Master Catalog

Two Line Element Set (TLE):
1 40078U 14037K   25201.47269016  .00000632  00000-0  14050-3 0  9993
2 40078  98.0287 186.2206 0131982  18.5381 342.0560 14.55103540584870
Source of the keplerian elements: AFSPC